Tiempo cada hora Musiivka

Hoy, 27 Octubre, Martes

Tiempo Temperatura Precipitaciones Viento Presión Humedad
00:00 +14°C° 0 mm 6 mps 760 mmHg 62%
01:00 +13°C° 0 mm 6 mps 760 mmHg 62%
02:00 +13°C° 0 mm 6 mps 761 mmHg 61%
03:00 +13°C° 0 mm 6 mps 761 mmHg 62%
04:00 +12°C° 0 mm 5 mps 761 mmHg 64%
05:00 +12°C° 0 mm 5 mps 761 mmHg 65%
06:00 +12°C° 0 mm 5 mps 761 mmHg 65%
07:00 +12°C° 0 mm 5 mps 761 mmHg 65%
08:00 +13°C° 0 mm 5 mps 761 mmHg 65%
09:00 +14°C° 0 mm 5 mps 761 mmHg 62%
10:00 +15°C° 0 mm 6 mps 761 mmHg 60%
11:00 +16°C° 0 mm 6 mps 761 mmHg 57%
12:00 +17°C° 0 mm 5 mps 761 mmHg 55%
13:00 +17°C° 0 mm 5 mps 761 mmHg 52%
14:00 +19°C° 0 mm 5 mps 761 mmHg 50%
15:00 +17°C° 0 mm 5 mps 761 mmHg 52%
16:00 +17°C° 0 mm 4 mps 761 mmHg 55%
17:00 +15°C° 0 mm 4 mps 761 mmHg 57%
18:00 +15°C° 0 mm 4 mps 762 mmHg 57%
19:00 +14°C° 0 mm 5 mps 762 mmHg 57%
20:00 +14°C° 0 mm 5 mps 762 mmHg 56%
21:00 +13°C° 0 mm 5 mps 762 mmHg 56%
22:00 +13°C° 0 mm 5 mps 762 mmHg 56%
23:00 +12°C° 0 mm 5 mps 761 mmHg 56%

Mañana, 28 Octubre, Miércoles

Tiempo Temperatura Precipitaciones Viento Presión Humedad
00:00 +12°C° 0 mm 5 mps 762 mmHg 57%
01:00 +10°C° 0 mm 5 mps 762 mmHg 58%
02:00 +10°C° 0 mm 5 mps 762 mmHg 60%
03:00 +9°C° 0 mm 5 mps 762 mmHg 60%
04:00 +9°C° 0 mm 5 mps 762 mmHg 61%
05:00 +9°C° 0 mm 5 mps 762 mmHg 62%
06:00 +9°C° 0 mm 5 mps 762 mmHg 62%
07:00 +9°C° 0 mm 6 mps 762 mmHg 62%
08:00 +10°C° 0 mm 6 mps 762 mmHg 62%
09:00 +11°C° 0 mm 6 mps 762 mmHg 61%
10:00 +13°C° 0 mm 5 mps 762 mmHg 59%
11:00 +15°C° 0 mm 5 mps 761 mmHg 58%
12:00 +15°C° 0 mm 5 mps 761 mmHg 56%
13:00 +16°C° 0 mm 5 mps 761 mmHg 55%
14:00 +17°C° 0 mm 5 mps 761 mmHg 54%
15:00 +17°C° 0 mm 4 mps 761 mmHg 57%
16:00 +15°C° 0 mm 4 mps 761 mmHg 60%
17:00 +14°C° 0 mm 4 mps 761 mmHg 63%
18:00 +13°C° 0 mm 4 mps 761 mmHg 65%
19:00 +13°C° 0 mm 4 mps 761 mmHg 67%
20:00 +13°C° 0 mm 4 mps 761 mmHg 69%
21:00 +12°C° 0 mm 4 mps 761 mmHg 72%
22:00 +12°C° 0 mm 4 mps 761 mmHg 75%
23:00 +11°C° 0 mm 4 mps 761 mmHg 78%

Pasado mañana, 29 Octubre, Jueves

Tiempo Temperatura Precipitaciones Viento Presión Humedad
00:00 +11°C° 0 mm 4 mps 761 mmHg 80%
01:00 +10°C° 0 mm 4 mps 761 mmHg 83%
02:00 +10°C° 0 mm 3 mps 760 mmHg 85%
03:00 +10°C° 0 mm 4 mps 760 mmHg 86%
04:00 +8°C° 0 mm 4 mps 760 mmHg 87%
05:00 +8°C° 0 mm 4 mps 760 mmHg 88%
06:00 +10°C° 0 mm 4 mps 760 mmHg 83%
07:00 +10°C° 0 mm 4 mps 760 mmHg 79%
08:00 +9°C° 0 mm 5 mps 760 mmHg 75%
09:00 +12°C° 0 mm 4 mps 760 mmHg 70%
10:00 +13°C° 0 mm 4 mps 760 mmHg 65%
11:00 +14°C° 0 mm 4 mps 760 mmHg 60%
12:00 +16°C° 0 mm 3 mps 759 mmHg 58%
13:00 +17°C° 0 mm 3 mps 759 mmHg 56%
14:00 +17°C° 0 mm 2 mps 759 mmHg 55%
15:00 +17°C° 0 mm 2 mps 759 mmHg 57%
16:00 +16°C° 0 mm 2 mps 758 mmHg 60%
17:00 +15°C° 0 mm 2 mps 758 mmHg 63%
18:00 +15°C° 0 mm 2 mps 758 mmHg 64%
19:00 +15°C° 0 mm 2 mps 758 mmHg 65%
20:00 +13°C° 0 mm 3 mps 758 mmHg 66%
21:00 +13°C° 0 mm 3 mps 758 mmHg 66%
22:00 +13°C° 0 mm 3 mps 757 mmHg 67%
23:00 +12°C° 0 mm 3 mps 757 mmHg 68%

30 Octubre, Viernes

Tiempo Temperatura Precipitaciones Viento Presión Humedad
00:00 +12°C° 0 mm 3 mps 757 mmHg 68%
01:00 +12°C° 0 mm 3 mps 757 mmHg 68%
02:00 +13°C° 0 mm 2 mps 757 mmHg 68%
03:00 +12°C° 0 mm 3 mps 757 mmHg 68%
04:00 +12°C° 0 mm 3 mps 757 mmHg 68%
05:00 +11°C° 0 mm 4 mps 757 mmHg 68%
06:00 +12°C° 0 mm 3 mps 757 mmHg 67%
07:00 +12°C° 0 mm 3 mps 757 mmHg 67%
08:00 +12°C° 0 mm 3 mps 757 mmHg 66%
09:00 +12°C° 0 mm 3 mps 757 mmHg 64%
10:00 +13°C° 0 mm 3 mps 757 mmHg 63%
11:00 +13°C° 0 mm 3 mps 757 mmHg 61%
12:00 +13°C° 0 mm 3 mps 757 mmHg 63%
13:00 +13°C° 0 mm 3 mps 757 mmHg 65%
14:00 +13°C° 0 mm 3 mps 757 mmHg 67%
15:00 +13°C° 0 mm 3 mps 757 mmHg 71%
16:00 +14°C° 0 mm 2 mps 757 mmHg 76%
17:00 +13°C° 0 mm 2 mps 758 mmHg 80%
18:00 +13°C° 0 mm 2 mps 758 mmHg 82%
19:00 +13°C° 0 mm 1 mps 758 mmHg 84%
20:00 +12°C° 0 mm 1 mps 758 mmHg 85%
21:00 +12°C° 0 mm 1 mps 758 mmHg 87%
22:00 +12°C° 0 mm 1 mps 758 mmHg 88%
23:00 +10°C° 0 mm 0 mps 758 mmHg 90%

31 Octubre, Sábado

Tiempo Temperatura Precipitaciones Viento Presión Humedad
00:00 +11°C° 0 mm 1 mps 758 mmHg 90%
01:00 +11°C° 0 mm 1 mps 758 mmHg 90%
02:00 +11°C° 0 mm 1 mps 758 mmHg 90%
03:00 +11°C° 0 mm 1 mps 758 mmHg 90%
04:00 +9°C° 0 mm 2 mps 758 mmHg 90%
05:00 +9°C° 0 mm 2 mps 758 mmHg 90%
06:00 +10°C° 0 mm 3 mps 758 mmHg 88%
07:00 +10°C° 0 mm 3 mps 758 mmHg 86%
08:00 +10°C° 0 mm 3 mps 758 mmHg 84%
09:00 +11°C° 0 mm 4 mps 758 mmHg 78%
10:00 +13°C° 0 mm 4 mps 758 mmHg 72%
11:00 +14°C° 0 mm 4 mps 758 mmHg 66%
12:00 +14°C° 0 mm 5 mps 757 mmHg 66%
13:00 +14°C° 0 mm 5 mps 757 mmHg 65%
14:00 +14°C° 0 mm 5 mps 757 mmHg 65%
15:00 +14°C° 1.1 mm 6 mps 757 mmHg 70%
16:00 +14°C° 1.1 mm 6 mps 756 mmHg 76%
17:00 +12°C° 1.1 mm 7 mps 756 mmHg 81%
18:00 +13°C° 2.6 mm 6 mps 756 mmHg 83%
19:00 +13°C° 2.6 mm 6 mps 756 mmHg 85%
20:00 +13°C° 2.6 mm 5 mps 756 mmHg 87%
21:00 +12°C° 0.3 mm 5 mps 756 mmHg 88%
22:00 +12°C° 0.3 mm 4 mps 756 mmHg 89%
23:00 +12°C° 0.3 mm 3 mps 756 mmHg 89%

1 Noviembre, Domingo

Tiempo Temperatura Precipitaciones Viento Presión Humedad
00:00 +12°C° 0 mm 4 mps 757 mmHg 86%
01:00 +12°C° 0 mm 4 mps 757 mmHg 84%
02:00 +12°C° 0 mm 5 mps 757 mmHg 81%
03:00 +12°C° 0 mm 5 mps 757 mmHg 80%
04:00 +10°C° 0 mm 5 mps 757 mmHg 79%
05:00 +10°C° 0 mm 6 mps 757 mmHg 78%
06:00 +11°C° 0 mm 6 mps 757 mmHg 78%
07:00 +11°C° 0 mm 6 mps 758 mmHg 77%
08:00 +11°C° 0 mm 6 mps 758 mmHg 77%
09:00 +13°C° 0 mm 6 mps 758 mmHg 71%
10:00 +14°C° 0 mm 6 mps 758 mmHg 65%
11:00 +15°C° 0 mm 7 mps 759 mmHg 59%
12:00 +15°C° 0 mm 6 mps 759 mmHg 58%
13:00 +16°C° 0 mm 6 mps 759 mmHg 57%
14:00 +16°C° 0 mm 6 mps 759 mmHg 55%
15:00 +15°C° 0 mm 5 mps 759 mmHg 59%
16:00 +14°C° 0 mm 4 mps 759 mmHg 62%
17:00 +14°C° 0 mm 4 mps 759 mmHg 66%
18:00 +13°C° 0 mm 4 mps 759 mmHg 69%
19:00 +13°C° 0 mm 5 mps 760 mmHg 73%
20:00 +13°C° 0 mm 5 mps 760 mmHg 77%
21:00 +13°C° 0 mm 5 mps 760 mmHg 78%
22:00 +13°C° 0 mm 4 mps 760 mmHg 80%
23:00 +13°C° 0 mm 4 mps 760 mmHg 81%
Mostrar más

Necesitamos Su Consentimiento

Meteoprog y nuestros Proveedores de Servicios pueden almacenar y acceder a sus datos personales como cookies, identificadores de dispositivo u otras tecnologías similares de su dispositivo y procesar dichos datos para personalizar contenido y anuncios, además de ofrecer funciones de redes sociales y analizar el tráfico.

  • Almacenar y/o acceder a información en su dispositivo

    Se puede almacenar o acceder a cookies, identificadores de dispositivo u otra información de su dispositivo para los fines anteriormente indicados.

  • Anuncios y contenido personalizados, medición de anuncios y contenido, percepciones del público, y desarrollo de productos

    Los anuncios y el contenido pueden personalizarse en base a su perfil. Se pueden añadir más datos para personalizar mejor los anuncios y contenidos. Se puede medir el rendimiento de los anuncios y contenidos. Se puede obtener la percepción sobre el público que ha visto los anuncios y contenidos. Dichos datos pueden usarse para desarrollar o mejorar la experiencia del usuario, sistemas y software.

Al hacer clic en ‘Estoy De Acuerdo’ usted permitirá el uso de las cookies, identificadores de dispositivo, balizas web u otras tecnologías similares indicadas. Su configuración puede cambiarse desde el navegador de su dispositivo.

Para ciertos fines, los intereses legítimos pueden ser considerados por encima del consentimiento. Puede leer más sobre ello en nuestra Política de Privacidad y Cookies.